Weather reports worldwide

Advertisment
Grenoble/St.Geoirs, France (7486): temperature & dewpoint: 16.06.2018 20:00:00 - 22.06.2018 20:00:00 (CEST)Grenoble/St.Geoirs, France (7486): temperature 5cm: 16.06.2018 20:00:00 - 22.06.2018 20:00:00 (CEST)Grenoble/St.Geoirs, France (7486): temperature -20cm & temperature -100cm: 16.06.2018 20:00:00 - 22.06.2018 20:00:00 (CEST)Grenoble/St.Geoirs, France (7486): wind speed & gusts: 16.06.2018 20:00:00 - 22.06.2018 20:00:00 (CEST)Grenoble/St.Geoirs, France (7486): wind direction: 16.06.2018 20:00:00 - 22.06.2018 20:00:00 (CEST)Grenoble/St.Geoirs, France (7486): reduced air pressure: 16.06.2018 20:00:00 - 22.06.2018 20:00:00 (CEST)Grenoble/St.Geoirs, France (7486): visibility: 16.06.2018 20:00:00 - 22.06.2018 20:00:00 (CEST)Grenoble/St.Geoirs, France (7486): sunshine duration: 16.06.2018 20:00:00 - 22.06.2018 20:00:00 (CEST)Grenoble/St.Geoirs, France (7486): precipitation: 16.06.2018 20:00:00 - 22.06.2018 20:00:00 (CEST)
Date & Time tt [°C] td [°C] tt 5cm [°C] tt -20cm [°C] tt -100cm [°C] ff [km/h] ff [kn] fx [km/h] fx [kn] dd ppp [hPa] vv [km] sd [min] rr [mm]
22.06.2018 20:00:00 19,5 6,9 20,8 21,3 17,7 29 15 50 27 NNW 1020,5 34 60 0,0
22.06.2018 19:00:00 20,4 7,0 23,0 21,2 17,8 31 17 51 28 NNW 1020,2 31 60 0,0
22.06.2018 18:00:00 20,9 7,1 24,4 21,1 17,7 29 16 51 27 NNW 1020,0 29 60 0,0
22.06.2018 17:00:00 21,3 6,8 26,2 21,0 17,7 22 12 49 26 NNW 1020,0 29 60 0,0
22.06.2018 16:00:00 21,2 6,7 26,2 20,9 17,7 28 15 45 24 NNW 1020,3 26 60 0,0
22.06.2018 15:00:00 20,7 8,3 24,4 20,8 17,7 28 15 45 25 NW 1020,4 26 57 0,0
22.06.2018 14:00:00 19,8 9,4 24,0 20,8 17,7 20 11 37 20 NNW 1020,8 20 51 0,0
22.06.2018 13:00:00 18,1 8,6 23,7 20,9 17,7 22 12 43 23 NW 1021,3 20 60 0,0
22.06.2018 12:00:00 16,6 8,3 18,8 20,9 17,7 19 10 36 19 NNW 1022,1 30 56 0,0
22.06.2018 11:00:00 15,7 8,2 15,4 21,0 17,7 21 11 38 21 NNW 1022,0 20 33 0,0
22.06.2018 10:00:00 13,0 6,8 12,9 21,2 17,7 20 11 36 19 N 1022,7 60 0 0,0
22.06.2018 09:00:00 11,8 6,3 12,1 21,4 17,7 8 5 26 14 NW 1022,5 59 0 0,0
22.06.2018 08:00:00 11,6 6,5 11,9 21,5 17,7 8 4 23 12 NW 1022,2 59 0 0,0
22.06.2018 07:00:00 11,7 7,0 11,4 21,6 17,6 8 5 37 20 WNW 1022,0 58 23 0,0
22.06.2018 06:00:00 12,2 7,7 11,4 21,7 17,6 18 10 34 18 NNW 1021,6 60 0 0,0
22.06.2018 05:00:00 13,4 8,5 12,5 21,9 17,6 19 10 31 17 NNW 1021,2 60 0 0,0
22.06.2018 04:00:00 14,6 9,0 13,5 22,0 17,6 13 7 25 13 NNW 1020,9 60 0 0,0
22.06.2018 03:00:00 15,7 10,0 14,4 22,1 17,6 14 7 38 20 WSW 1020,3 60 0 0,0
22.06.2018 02:00:00 16,8 12,3 15,6 22,2 17,6 12 7 39 21 NW 1020,0 58 0 0,0
22.06.2018 01:00:00 18,3 13,8 17,5 22,3 17,6 21 11 42 23 NNW 1019,1 57 0 0,0
22.06.2018 00:00:00 19,5 14,5 18,8 22,3 17,5 19 11 54 29 N 1018,7 56 0 0,0
21.06.2018 23:00:00 20,6 15,4 20,0 22,3 17,5 29 16 49 27 N 1018,2 55 0 0,0
21.06.2018 22:00:00 22,6 15,4 19,8 22,3 17,5 22 12 42 23 NNW 1017,0 60 0 0,0
21.06.2018 21:00:00 - - - - - - - - - - - - - -
21.06.2018 20:00:00 26,1 14,2 27,0 22,0 17,5 16 9 29 16 N 1015,5 59 57 0,0
21.06.2018 19:00:00 27,6 14,9 30,6 21,9 17,5 15 8 28 15 N 1015,1 52 60 0,0
21.06.2018 18:00:00 28,4 16,0 28,5 21,7 17,5 18 10 29 16 N 1015,0 43 49 0,0
21.06.2018 17:00:00 - - - - - - - - - - - - - -
21.06.2018 16:00:00 29,2 15,3 32,3 21,3 17,5 16 9 29 16 NNW 1015,1 20 50 0,0
21.06.2018 15:00:00 28,8 17,3 29,8 21,2 17,5 14 8 26 14 NNW 1015,5 20 39 0,0
21.06.2018 14:00:00 28,4 18,2 31,0 21,0 17,4 14 7 25 13 NNW 1015,7 20 40 0,0
21.06.2018 13:00:00 28,4 17,0 33,6 20,9 17,4 4 2 18 10 WSW 1016,3 44 60 0,0
21.06.2018 12:00:00 26,8 15,8 31,6 20,9 17,4 7 4 17 9 WNW 1016,9 20 53 0,0
21.06.2018 11:00:00 - - - - - - - - - - - - - -
21.06.2018 10:00:00 25,2 16,1 27,5 21,0 17,4 5 3 15 8 E 1017,2 20 57 0,0
21.06.2018 09:00:00 23,0 17,2 22,3 21,1 17,4 11 6 16 9 E 1017,8 32 50 0,0
21.06.2018 08:00:00 20,7 17,1 18,5 21,2 17,4 10 6 15 8 E 1018,2 20 19 0,0
21.06.2018 07:00:00 18,0 16,2 15,4 21,3 17,4 11 6 14 8 E 1018,5 18 5 0,0
21.06.2018 06:00:00 16,1 14,6 14,8 21,4 17,4 10 6 16 9 E 1018,6 18 0 0,0
21.06.2018 05:00:00 16,2 14,0 14,7 21,5 17,4 12 7 14 8 E 1018,6 17 0 0,0
21.06.2018 04:00:00 16,7 14,5 15,2 21,6 17,4 9 5 15 8 E 1018,8 26 0 0,0
21.06.2018 03:00:00 17,7 14,8 15,9 21,7 17,4 11 6 15 8 E 1018,9 33 0 0,0
21.06.2018 02:00:00 18,5 15,4 15,6 21,7 17,3 8 4 10 6 ENE 1018,9 35 0 0,0
21.06.2018 01:00:00 21,0 15,5 18,2 21,8 17,4 6 4 16 9 WNW 1018,8 42 0 0,0
21.06.2018 00:00:00 22,1 15,9 18,3 21,7 17,3 6 3 22 12 W 1018,8 42 0 0,0
20.06.2018 23:00:00 23,0 16,3 20,1 21,7 17,4 14 8 23 12 SW 1018,9 50 0 0,0
20.06.2018 22:00:00 23,9 17,2 20,1 21,6 17,3 0 0 11 6 N 1018,0 2,6 3 0,0
20.06.2018 21:00:00 26,1 18,2 24,4 21,5 17,3 8 5 11 6 WNW 1016,9 56 60 0,0
20.06.2018 20:00:00 29,0 18,5 31,0 21,3 17,3 6 4 10 5 W 1016,4 60 60 0,0
20.06.2018 19:00:00 29,9 16,3 33,2 21,1 17,3 6 3 14 8 SW 1016,3 54 60 0,0
20.06.2018 18:00:00 29,7 15,0 33,3 20,9 17,3 9 5 23 12 WSW 1016,4 36 60 0,0
20.06.2018 17:00:00 30,0 13,3 34,1 20,6 17,3 16 8 26 14 SSW 1016,9 38 60 0,0
20.06.2018 16:00:00 29,3 15,1 34,5 20,4 17,3 11 6 25 14 W 1017,3 19 60 0,0
20.06.2018 15:00:00 28,7 16,3 34,2 20,2 17,3 15 8 30 16 W 1017,8 20 60 0,0
20.06.2018 14:00:00 27,6 17,2 32,9 20,0 17,3 8 4 18 10 W 1018,5 16 60 0,0
20.06.2018 13:00:00 26,7 18,3 31,9 20,0 17,3 8 4 17 9 WSW 1019,1 19 60 0,0
20.06.2018 12:00:00 25,5 18,2 30,6 20,0 17,3 6 3 18 10 SW 1019,5 20 60 0,0
20.06.2018 11:00:00 24,1 18,3 29,8 20,0 17,3 7 4 13 7 SSW 1019,8 18 60 0,0
20.06.2018 10:00:00 23,0 16,5 28,6 20,1 17,3 4 2 9 5 SSE 1020,1 43 60 0,0
20.06.2018 09:00:00 20,1 16,1 24,8 20,2 17,3 3 2 6 4 W 1020,7 34 60 0,0
20.06.2018 08:00:00 17,6 15,4 18,9 20,3 17,3 4 2 6 4 SW 1021,1 33 60 0,0
20.06.2018 07:00:00 15,4 14,4 11,2 20,4 17,3 5 3 8 4 ESE 1021,3 14 44 0,0
20.06.2018 06:00:00 13,5 12,7 10,2 20,5 17,3 6 3 13 7 E 1021,4 9 0 0,0
20.06.2018 05:00:00 13,9 12,8 11,0 20,6 17,3 3 2 8 5 E 1021,2 11 0 0,0
20.06.2018 04:00:00 14,8 13,5 11,2 20,7 17,2 7 4 10 5 E 1021,0 16 0 0,0
20.06.2018 03:00:00 15,0 13,7 11,5 20,8 17,3 6 3 10 6 E 1021,0 21 0 0,0
20.06.2018 02:00:00 15,8 14,0 12,3 20,8 17,2 6 3 8 4 E 1021,1 22 0 0,0
20.06.2018 01:00:00 17,1 14,2 13,7 20,9 17,2 6 3 12 6 SE 1021,0 36 0 0,0
20.06.2018 00:00:00 18,4 15,5 16,1 20,9 17,2 8 4 14 7 ESE 1020,8 56 0 0,0
19.06.2018 23:00:00 19,6 15,5 16,3 20,9 17,2 5 3 16 8 SSE 1020,5 53 0 0,0
19.06.2018 22:00:00 20,2 16,0 18,4 20,8 17,3 9 5 17 9 N 1020,2 29 3 0,0
19.06.2018 21:00:00 22,9 16,2 22,1 20,6 17,2 12 7 22 12 NNW 1019,8 17 60 0,0
19.06.2018 20:00:00 24,8 16,0 26,7 20,5 17,3 16 8 26 14 NNW 1019,7 51 60 0,0
19.06.2018 19:00:00 25,7 16,0 28,8 20,3 17,2 15 8 26 14 NNW 1019,8 44 60 0,0
19.06.2018 18:00:00 25,9 16,2 30,4 20,1 17,2 16 8 32 17 N 1020,2 43 60 0,0
19.06.2018 17:00:00 25,9 15,6 31,3 19,9 17,3 15 8 27 15 N 1020,5 44 60 0,0
19.06.2018 16:00:00 25,9 15,9 27,7 19,7 17,2 14 8 28 15 NNW 1020,8 43 47 0,0
19.06.2018 15:00:00 24,9 14,4 28,6 19,5 17,2 13 7 41 22 NNW 1021,3 48 53 0,0
19.06.2018 14:00:00 24,5 15,4 26,5 19,4 17,2 12 6 24 13 N 1021,9 41 35 0,0
19.06.2018 13:00:00 23,5 14,2 26,3 19,3 17,2 11 6 25 13 N 1022,5 18 52 0,0
19.06.2018 12:00:00 22,7 14,5 26,7 19,3 17,2 13 7 27 14 N 1022,9 47 58 0,0
19.06.2018 11:00:00 21,7 13,8 26,8 19,3 17,2 15 8 26 14 N 1023,2 50 60 0,0
19.06.2018 10:00:00 20,5 14,6 24,9 19,4 17,2 9 5 19 10 N 1023,8 50 60 0,0
19.06.2018 09:00:00 19,0 13,8 22,7 19,5 17,2 4 2 10 5 SSE 1024,0 44 60 0,0
19.06.2018 08:00:00 16,6 13,5 18,3 19,6 17,2 4 2 9 5 E 1024,4 32 60 0,0
19.06.2018 07:00:00 14,8 13,3 10,0 19,7 17,2 4 2 10 6 ENE 1024,6 25 44 0,0
19.06.2018 06:00:00 12,4 11,0 9,5 19,8 17,2 5 3 9 5 ESE 1024,9 16 0 0,0
19.06.2018 05:00:00 13,6 12,2 10,5 19,9 17,2 5 3 9 5 ENE 1024,3 33 0 0,0
19.06.2018 04:00:00 13,9 12,1 10,6 20,0 17,2 5 3 10 5 ENE 1024,1 48 0 0,0
19.06.2018 03:00:00 15,0 12,5 13,2 20,1 17,2 5 3 23 12 ENE 1024,0 58 0 0,0
19.06.2018 02:00:00 16,0 12,7 13,6 20,1 17,2 7 4 21 11 NW 1023,8 60 0 0,0
19.06.2018 01:00:00 16,2 12,9 14,4 20,1 17,2 10 6 27 15 NW 1023,6 60 0 0,0
19.06.2018 00:00:00 16,8 13,1 15,5 20,2 17,2 8 4 32 17 NNW 1023,6 60 0 0,0
18.06.2018 23:00:00 17,8 13,1 17,0 20,1 17,2 16 9 39 21 NNW 1023,3 60 0 0,0
18.06.2018 22:00:00 18,4 13,0 17,5 20,1 17,2 16 9 39 21 N 1022,7 60 3 0,0
18.06.2018 21:00:00 19,7 12,9 19,6 20,0 17,2 14 8 38 20 NNW 1022,2 56 60 0,0
18.06.2018 20:00:00 20,9 12,8 22,5 19,9 17,2 22 12 44 24 NNW 1021,7 43 60 0,0
18.06.2018 19:00:00 21,9 13,0 25,1 19,7 17,2 22 12 40 22 NNW 1021,4 53 60 0,0
18.06.2018 18:00:00 22,6 11,9 26,9 19,6 17,2 23 13 45 25 NNW 1021,2 56 60 0,0
18.06.2018 17:00:00 23,2 11,6 28,3 19,4 17,2 22 12 36 19 NW 1021,3 20 60 0,0
18.06.2018 16:00:00 23,0 12,0 25,0 19,3 17,2 22 12 38 21 NW 1021,5 56 42 0,0
18.06.2018 15:00:00 22,4 12,1 26,3 19,1 17,2 16 9 34 18 NNW 1021,6 49 48 0,0
18.06.2018 14:00:00 21,9 12,2 25,1 19,1 17,2 20 11 39 21 NNW 1021,8 20 56 0,0
18.06.2018 13:00:00 21,5 12,1 22,4 19,0 17,2 18 10 38 21 N 1022,4 20 42 0,0
18.06.2018 12:00:00 19,5 11,8 21,6 19,1 17,2 19 10 35 19 NNW 1022,6 25 31 0,0
18.06.2018 11:00:00 19,5 12,0 20,6 19,1 17,2 16 9 34 18 NNW 1022,5 27 51 0,0
18.06.2018 10:00:00 17,4 11,7 18,4 19,2 17,2 17 9 32 17 N 1022,9 30 7 0,0
18.06.2018 09:00:00 17,4 11,4 17,6 19,2 17,2 14 8 24 13 N 1022,5 32 40 0,0
18.06.2018 08:00:00 15,1 9,9 15,6 19,3 17,2 2 1 17 9 ENE 1022,8 22 20 0,0
18.06.2018 07:00:00 14,5 9,7 12,3 19,4 17,2 5 3 16 9 NW 1022,9 36 20 0,0
18.06.2018 06:00:00 14,6 9,4 13,6 19,5 17,2 8 4 19 10 NNW 1022,8 20 0 0,0
18.06.2018 05:00:00 14,8 9,6 14,0 19,5 17,2 6 3 31 17 W 1022,5 28 0 0,0
18.06.2018 04:00:00 14,8 10,2 14,3 19,6 17,2 16 8 27 14 NNW 1022,3 27 0 0,0
18.06.2018 03:00:00 15,0 10,6 13,2 19,7 17,2 6 3 18 10 WNW 1022,6 28 0 0,0
18.06.2018 02:00:00 15,5 10,0 13,5 19,7 17,2 8 4 17 9 W 1022,2 30 0 0,0
18.06.2018 01:00:00 16,0 10,7 14,4 19,8 17,2 8 4 15 8 WNW 1022,2 30 0 0,0
18.06.2018 00:00:00 16,6 11,3 14,9 19,8 17,2 3 2 15 8 W 1022,2 29 0 0,0
17.06.2018 23:00:00 17,0 11,5 15,9 19,8 17,2 7 4 13 7 NNW 1022,1 32 0 0,0
17.06.2018 22:00:00 17,9 11,7 16,9 19,8 17,2 4 2 17 9 ENE 1021,7 27 3 0,0
17.06.2018 21:00:00 18,5 12,0 18,2 19,8 17,2 4 2 24 13 NNW 1020,7 27 5 0,0
17.06.2018 20:00:00 19,0 12,5 19,1 19,8 17,2 10 6 35 19 NNW 1020,1 26 0 0,0
17.06.2018 19:00:00 19,5 12,7 19,8 19,7 17,2 19 10 34 18 N 1019,6 22 0 0,0
17.06.2018 18:00:00 20,9 13,6 22,5 19,7 17,2 19 10 41 22 N 1019,1 19 13 0,0
17.06.2018 17:00:00 20,4 12,9 21,9 19,7 17,2 24 13 42 23 NNW 1019,1 19 3 0,0
17.06.2018 16:00:00 20,7 12,1 21,9 19,6 17,1 23 13 41 22 NNW 1019,0 20 4 0,0
17.06.2018 15:00:00 20,1 12,6 21,7 19,6 17,1 23 12 44 24 NNW 1018,7 20 0 0,0
17.06.2018 14:00:00 20,5 13,5 22,3 19,5 17,2 24 13 37 20 NNW 1018,8 20 0 0,0
17.06.2018 13:00:00 21,1 13,3 24,4 19,5 17,1 18 10 31 17 NNW 1018,8 22 18 0,0
17.06.2018 12:00:00 20,2 13,6 22,8 19,6 17,1 15 8 29 16 NNW 1019,1 24 4 0,0
17.06.2018 11:00:00 19,5 14,1 19,4 19,6 17,1 14 7 29 15 NNW 1019,5 24 3 0,0
17.06.2018 10:00:00 18,1 13,4 19,1 19,7 17,1 17 9 31 17 NNW 1019,8 21 0 0,0
17.06.2018 09:00:00 17,6 12,9 17,9 19,8 17,1 13 7 28 15 NNW 1019,5 27 0 0,0
17.06.2018 08:00:00 17,0 12,3 16,9 19,9 17,1 5 3 14 8 NW 1019,2 25 5 0,0
17.06.2018 07:00:00 16,3 11,9 14,3 20,0 17,1 3 1 14 7 S 1018,7 18 16 0,0
17.06.2018 06:00:00 16,0 11,6 14,6 20,1 17,1 5 3 14 8 N 1018,5 27 0 0,0
17.06.2018 05:00:00 16,7 12,0 15,5 20,1 17,1 7 4 17 9 NE 1018,1 32 0 0,0
17.06.2018 04:00:00 17,0 13,1 16,2 20,2 17,2 8 4 25 14 SSW 1018,0 30 0 0,0
17.06.2018 03:00:00 17,3 13,4 16,3 20,3 17,1 18 10 35 19 NW 1017,6 34 0 0,0
17.06.2018 02:00:00 17,5 13,6 14,5 20,4 17,1 14 7 26 14 NW 1017,2 34 0 0,0
17.06.2018 01:00:00 17,6 13,1 14,7 20,4 17,1 6 3 10 5 WNW 1017,1 31 0 0,0
17.06.2018 00:00:00 17,5 13,2 14,7 20,4 17,1 4 2 12 7 S 1017,0 23 0 0,0
16.06.2018 23:00:00 18,7 13,8 16,5 20,3 17,1 6 4 12 6 W 1016,4 24 0 0,0
16.06.2018 22:00:00 19,2 14,0 16,7 20,2 17,1 5 3 10 6 SSE 1015,9 3,1 2 0,0
16.06.2018 21:00:00 21,3 13,2 20,2 20,2 17,1 3 2 16 8 SW 1014,9 20 56 0,0
16.06.2018 20:00:00 22,3 12,8 22,8 20,0 17,1 11 6 26 14 N 1014,4 18 53 0,0

tt = temperature
td = dewpoint
tt 5cm = temperature 5cm
tt -20cm = temperature -20cm
tt -100cm = temperature -100cm
ff = wind speed
fx = gusts
dd = wind direction
ppp = reduced air pressure
vv = visibility
sd = sunshine duration
rr = precipitation

Next stations